[[[{"header":{"parameterUnit":"kt","parameterCategory":2,"dx":1,"dy":1,"la1":30.253999710083008,"la2":30.299108505249023,"lo1":-89.0895004272461,"lo2":-89.04439544677734,"nx":28,"ny":28,"refTime":"2022-10-19T09:00:00:Z","depth":0,"parameterNumber":1,"parameterNumberName":"U-component_of_WINDS"},"data":[-1.4324,-1.4544,-1.455,-1.4803,-1.485,-1.5026,-1.5091,-1.5174,-1.5242,-1.545,-1.5571,-1.5599,-1.5671,-1.5817,-1.5949,-1.5959,-1.6019,-1.6089,-1.6092,-1.5762,-1.5718,-1.5675,-1.5628,-1.6099,-1.61,-1.6437,-1.644,-1.6442,-1.4078,-1.4127,-1.4262,-1.4398,-1.4514,-1.4447,-1.455,-1.4653,-1.4811,-1.4896,-1.5016,-1.52,-1.5346,-1.5395,-1.5538,-1.5641,-1.5622,-1.568,-1.568,-1.5694,-1.5338,-1.5287,-1.5693,-1.5693,-1.5693,-1.5693,-1.5693,-1.5693,-1.3632,-1.3763,-1.385,-1.3997,-1.4066,-1.4157,-1.4284,-1.4316,-1.4449,-1.46,-1.458,-1.4761,-1.4848,-1.5025,-1.5086,-1.5226,-1.5165,-1.5233,-1.5252,-1.5273,-1.5296,-1.4822,-1.5249,-1.5248,-1.5247,-1.5246,-1.5245,0,-1.3312,-1.3309,-1.3439,-1.3572,-1.368,-1.3784,-1.3881,-1.3958,-1.3956,-1.4066,-1.4226,-1.4321,-1.4505,-1.4659,-1.4794,-1.4845,-1.4798,-1.4789,-1.4838,-1.4859,-1.4857,-1.487,-1.43,-1.4781,-1.4777,-1.4774,-1.4772,-1.4771,-1.2873,-1.3022,-1.3117,-1.3207,-1.3263,-1.3409,-1.3499,-1.3485,-1.3582,-1.3699,-1.3816,-1.3966,-1.409,-1.4345,-1.4387,-1.4526,-1.4507,-1.4691,-1.4529,-1.4536,-1.4523,-1.4519,-1.4537,-1.4728,-1.4734,-1.4738,-1.4742,0,-1.2626,-1.2638,-1.2873,-1.2953,-1.2977,-1.3136,-1.3205,-1.3334,-1.3353,-1.3536,-1.3577,-1.3611,-1.3769,-1.3781,-1.3964,-1.3966,-1.4231,-1.4202,-1.4201,-1.42,-1.4373,-1.4361,-1.4916,-1.4991,-1.449,-1.4494,-1.4498,0,-1.2263,-1.246,-1.2468,-1.2605,-1.2822,-1.2806,-1.3022,-1.3062,-1.3138,-1.3282,-1.3224,-1.336,-1.3354,-1.3491,-1.3495,-1.3711,-1.3743,-1.3762,-1.3764,-1.3775,-1.3775,-1.3838,-1.382,-1.3747,-1.3744,-1.3742,-1.374,0,-1.1887,-1.2119,-1.2338,-1.2394,-1.2503,-1.2605,-1.2655,-1.2742,-1.2831,-1.2946,-1.3005,-1.314,-1.3218,-1.3323,-1.3329,-1.3219,-1.3591,-1.3442,-1.3612,-1.3613,-1.3705,-1.3702,-1.4178,-1.3736,-1.3735,-1.3734,-1.3733,0,-1.1601,-1.1717,-1.203,-1.212,-1.2183,-1.2326,-1.2461,-1.2585,-1.2682,-1.2694,-1.2785,-1.2754,-1.2939,-1.279,-1.3048,-1.2905,-1.2983,-1.3016,-1.3028,-1.3058,-1.2896,-1.3177,-1.3618,-1.3671,-1.3067,-1.3062,-1.3057,0,-1.117,-1.149,-1.1481,-1.1779,-1.193,-1.186,-1.2018,-1.2105,-1.2135,-1.2267,-1.2298,-1.2451,-1.2343,-1.2394,-1.2517,-1.256,-1.2745,-1.2533,-1.2735,-1.2743,-1.2723,-1.3126,-1.3196,-1.3517,-1.2985,-1.2993,-1.2998,0,-1.0842,-1.0972,-1.1026,-1.1092,-1.1205,-1.1331,-1.1511,-1.1659,-1.1749,-1.185,-1.2007,-1.2216,-1.2146,-1.2231,-1.2221,-1.235,-1.2619,-1.2259,-1.2261,-1.2331,-1.2948,-1.3013,-1.3067,-1.2583,-1.2592,-1.2599,-1.2942,0,-1.0423,-1.0584,-1.0727,-1.0874,-1.0971,-1.1157,-1.1175,-1.1275,-1.1255,-1.1285,-1.151,-1.1588,-1.1742,-1.1803,-1.1787,-1.2075,-1.2032,-1.1956,-1.1825,-1.2084,-1.2199,-1.2245,-1.1652,-1.1648,-1.1645,-1.1642,0,0,-1.0015,-1.0247,-1.0234,-1.0411,-1.0495,-1.0423,-1.0622,-1.0694,-1.0846,-1.0906,-1.0829,-1.1141,-1.121,-1.1484,-1.1565,-1.1625,-1.1681,-1.1591,-1.1958,-1.1993,-1.2026,-1.2148,-1.2195,-1.1636,-1.1635,-1.1634,-1.1633,0,-0.9869,-0.9934,-1.0129,-1.0203,-1.0314,-1.0335,-1.0381,-1.048,-1.051,-1.0729,-1.0673,-1.081,-1.106,-1.1143,-1.1217,-1.1553,-1.1509,-1.1597,-1.1776,-1.1924,-1.1964,-1.1999,-1.2126,-1.2171,-1.1625,-1.1625,-1.1626,0,-0.9556,-0.9627,-0.9722,-0.9906,-0.9979,-1.0136,-0.9998,-1.0168,-1.0285,-1.0206,-1.0427,-1.0474,-1.0585,-1.0839,-1.0953,-1.0889,-1.1352,-1.1207,-1.1228,-1.1246,-1.1391,-1.1438,-1.148,-1.0928,-1.0926,-1.0923,0,0,-0.9429,-0.9578,-0.9655,-0.9877,-0.9926,-0.9962,-1.0047,-1.0039,-1.0139,-1.018,-1.0242,-1.0342,-1.0487,-1.0584,-1.0722,-1.0996,-1.1023,-1.1121,-1.1154,-1.118,-1.1212,-1.1364,-1.1411,-1.0914,-1.0914,-1.0913,0,0,-0.9371,-0.9468,-0.9431,-0.9691,-0.9786,-0.988,-1.0016,-0.9975,-1.0101,-1.0083,-1.008,-1.0107,-1.0343,-1.0394,-1.0264,-1.0677,-1.0544,-1.0575,-1.0638,-1.068,-1.0712,-1.0701,-1.0142,0,0,0,0,0,-0.9234,-0.9454,-0.942,-0.9467,-0.9702,-0.9897,-0.9927,-0.9929,-0.9835,-0.9942,-0.9988,-0.9932,-1.0323,-1.0209,-1.0256,-1.0405,-1.0792,-1.0814,-1.0834,-1.098,-1.1023,-1.106,0,0,0,0,0,0,-0.9252,-0.9309,-0.9414,-0.9517,-0.957,-0.9889,-0.9731,-0.9737,-0.9824,-0.981,-0.9925,-0.9936,-0.9942,-1.0184,-1.0227,-1.0368,-1.0127,-1.0801,-1.0819,-1.0835,-1.0994,-1.103,-1.106,0,0,0,0,0,-0.9267,-0.9312,-0.9689,-0.9514,-0.956,-0.9615,-0.9722,-0.9727,-0.9794,-0.9866,-0.9875,-0.9788,-0.9946,-0.9982,-1.021,-1.0349,-1.0098,-1.0114,-1.0813,-1.0827,-1.084,-1.1012,0,0,0,0,0,0,-0.9278,-0.9319,-0.9698,-0.9712,-0.9432,-0.9597,-0.9623,-0.9718,-0.9845,-0.9856,-0.9728,-0.9716,-0.9952,-0.9979,-1.0007,-1.0342,-1.0074,-1.009,-1.01,-1.0824,-1.0835,-1.0845,0,0,0,0,0,0,-0.9294,-0.9331,-0.9705,-0.9602,-0.9604,-0.9581,-0.9604,-0.9797,-0.9847,-0.97,-0.9693,-0.9721,-0.991,-0.9977,-0.9999,-1.0301,-1.0055,-1.0071,-1.0081,-1.0088,-1.0833,-1.0842,0,0,0,0,0,0,-0.931,-0.9342,-0.9598,-0.96,-0.9601,-0.976,-0.9752,-0.9994,-0.9756,-0.9695,-0.9734,-0.9725,-0.9911,-0.9932,-0.9994,-1.0287,-1.0298,-1.0056,-1.0066,-1.0074,-1.0079,0,0,0,0,0,0,0,-0.9322,-0.9108,-0.9614,-0.9598,-0.9599,-0.9843,-0.9847,-0.9851,-0.9753,-0.9745,-0.9737,-0.9729,-0.9967,-0.9984,-1.0001,-1.0276,0,0,-1.0054,-1.0062,0,0,0,0,0,0,0,0,-0.9095,-0.9105,-0.9615,-0.9617,-0.962,-0.9844,-0.9847,-0.985,-0.9752,-0.9745,-0.9738,-0.9732,-0.9971,-0.9985,-0.9999,0,0,0,0,0,0,0,0,0,0,0,0,0,0,0,-0.9615,-0.9617,0,-0.9844,-0.9847,-0.9849,-0.9751,-0.9745,-0.974,-0.9735,-0.9975,-0.9987,-0.9998,0,0,0,0,0,0,0,0,0,0,0,0,0,0,0,0,0,0,0,0,0,0,0,0,0,0,0,0,0,0,0,0,0,0,0,0,0,0,0,0,0,0,0,0,0,0,0,0,0,0,0,0,0,0,0,0,0,0,0,0,0,0,0,0,0,0,0,0,0]}],[{"header":{"parameterUnit":"kt","parameterCategory":2,"dx":1,"dy":1,"la1":30.253999710083008,"la2":30.299108505249023,"lo1":-89.0895004272461,"lo2":-89.04439544677734,"nx":28,"ny":28,"refTime":"2022-10-19T09:00:00:Z","depth":0,"parameterNumber":2,"parameterNumberName":"V-component_of_WINDS"},"data":[-15.3502,-15.3998,-15.4084,-15.4687,-15.4865,-15.5291,-15.5471,-15.5711,-15.5923,-15.6438,-15.6748,-15.6883,-15.7126,-15.7514,-15.7853,-15.7904,-15.8042,-15.8153,-15.8195,-15.7619,-15.7545,-15.7474,-15.7363,-15.8182,-15.8183,-15.8779,-15.8785,-15.8789,-15.3067,-15.325,-15.3595,-15.3987,-15.4283,-15.4226,-15.4532,-15.4782,-15.5164,-15.5429,-15.5741,-15.62,-15.6573,-15.6782,-15.7154,-15.7384,-15.7378,-15.7478,-15.7463,-15.7502,-15.6889,-15.6771,-15.7477,-15.7477,-15.7477,-15.7476,-15.7476,-15.7476,-15.2297,-15.2592,-15.288,-15.3256,-15.3476,-15.3738,-15.4032,-15.4192,-15.4529,-15.4932,-15.4967,-15.54,-15.5679,-15.617,-15.6354,-15.6691,-15.6595,-15.6731,-15.6766,-15.6799,-15.6824,-15.595,-15.6758,-15.6756,-15.6755,-15.6753,-15.6752,0,-15.1761,-15.1813,-15.2151,-15.2515,-15.2793,-15.3083,-15.3363,-15.3547,-15.3684,-15.3957,-15.4358,-15.4604,-15.5086,-15.5471,-15.5838,-15.6004,-15.5972,-15.5978,-15.6072,-15.6062,-15.6005,-15.604,-15.5037,-15.5954,-15.5947,-15.5943,-15.5939,-15.5936,-15.099,-15.1324,-15.1668,-15.1893,-15.2068,-15.2431,-15.2664,-15.2761,-15.3004,-15.336,-15.3614,-15.4002,-15.4318,-15.4944,-15.5125,-15.5485,-15.5473,-15.5813,-15.5527,-15.5502,-15.5479,-15.5458,-15.5491,-15.5867,-15.5876,-15.5883,-15.5889,0,-15.0548,-15.0689,-15.1234,-15.1542,-15.1629,-15.1973,-15.2235,-15.2532,-15.2654,-15.308,-15.3185,-15.3378,-15.3769,-15.3897,-15.4369,-15.4423,-15.4986,-15.4965,-15.4889,-15.4892,-15.5209,-15.5178,-15.6222,-15.6362,-15.5514,-15.5522,-15.5528,0,-14.9947,-15.0381,-15.0565,-15.0874,-15.1359,-15.1446,-15.1923,-15.2077,-15.2322,-15.2658,-15.2643,-15.2957,-15.3072,-15.3405,-15.3486,-15.3968,-15.4057,-15.4127,-15.4144,-15.413,-15.4121,-15.4259,-15.422,-15.4168,-15.4163,-15.4158,-15.4154,0,-14.924,-14.9849,-15.0352,-15.0513,-15.0886,-15.1119,-15.1284,-15.1559,-15.1788,-15.2102,-15.2251,-15.2611,-15.2809,-15.3086,-15.3187,-15.2988,-15.3781,-15.3528,-15.3852,-15.385,-15.4022,-15.401,-15.4901,-15.4147,-15.4145,-15.4143,-15.4141,0,-14.8776,-14.9097,-14.9806,-15.0114,-15.027,-15.0602,-15.0963,-15.1277,-15.1568,-15.1642,-15.1891,-15.1896,-15.233,-15.2068,-15.2666,-15.2378,-15.2572,-15.2679,-15.2705,-15.2752,-15.2457,-15.2942,-15.3778,-15.387,-15.2793,-15.2782,-15.2772,0,-14.7929,-14.8682,-14.8763,-14.9434,-14.98,-14.9759,-15.0128,-15.0387,-15.0517,-15.0843,-15.0983,-15.1355,-15.1188,-15.1322,-15.1601,-15.1761,-15.2135,-15.1714,-15.218,-15.2195,-15.2104,-15.2874,-15.2967,-15.358,-15.263,-15.2645,-15.2655,0,-14.729,-14.7742,-14.7856,-14.8043,-14.8404,-14.871,-14.9134,-14.9523,-14.9736,-15.003,-15.0386,-15.0912,-15.0807,-15.1029,-15.1072,-15.1356,-15.1884,-15.1205,-15.1213,-15.1322,-15.2569,-15.2655,-15.2758,-15.1849,-15.1867,-15.1881,-15.2543,0,-14.6556,-14.6952,-14.7267,-14.7683,-14.7939,-14.8367,-14.8507,-14.8758,-14.8773,-14.89,-14.9426,-14.9675,-15.007,-15.022,-15.0239,-15.0848,-15.0766,-15.0651,-15.0407,-15.0911,-15.1133,-15.1223,-15.0065,-15.0059,-15.0053,-15.0049,0,0,-14.5709,-14.628,-14.6358,-14.6774,-14.6996,-14.6949,-14.7394,-14.7603,-14.8029,-14.8182,-14.8047,-14.8825,-14.9033,-14.9658,-14.9826,-14.9986,-15.0107,-14.9926,-15.067,-15.0739,-15.0803,-15.1037,-15.1129,-15.004,-15.0038,-15.0036,-15.0034,0,-14.5471,-14.5688,-14.6128,-14.635,-14.668,-14.6794,-14.6899,-14.7218,-14.732,-14.7839,-14.7791,-14.8123,-14.8744,-14.897,-14.9166,-14.9854,-14.9799,-14.9964,-15.0288,-15.0611,-15.0687,-15.0754,-15.1,-15.1086,-15.0021,-15.0022,-15.0022,0,-14.4867,-14.5103,-14.5331,-14.5835,-14.6051,-14.6429,-14.6207,-14.6616,-14.6897,-14.6824,-14.7338,-14.7495,-14.7809,-14.8382,-14.8645,-14.8529,-14.9511,-14.9227,-14.9264,-14.9297,-14.9616,-14.9707,-14.9788,-14.8721,-14.8716,-14.8711,0,0,-14.4641,-14.501,-14.5294,-14.5794,-14.5933,-14.6109,-14.6324,-14.6363,-14.6648,-14.6762,-14.6963,-14.724,-14.7601,-14.7837,-14.8183,-14.8793,-14.8865,-14.9061,-14.9122,-14.9172,-14.923,-14.9563,-14.9653,-14.8692,-14.8692,-14.8691,0,0,-14.4533,-14.4883,-14.4849,-14.5447,-14.572,-14.6032,-14.6332,-14.6297,-14.6624,-14.659,-14.6673,-14.6751,-14.7289,-14.7445,-14.7172,-14.8098,-14.7854,-14.7923,-14.7977,-14.8057,-14.8118,-14.8069,-14.6979,0,0,0,0,0,-14.4362,-14.4839,-14.4805,-14.4926,-14.5564,-14.6051,-14.6133,-14.6214,-14.6039,-14.6274,-14.6435,-14.6363,-14.7314,-14.7074,-14.7192,-14.7497,-14.8444,-14.8488,-14.853,-14.8744,-14.8826,-14.8894,0,0,0,0,0,0,-14.4411,-14.4559,-14.4792,-14.5123,-14.5267,-14.6034,-14.5756,-14.5791,-14.6016,-14.5994,-14.6334,-14.6374,-14.6451,-14.7019,-14.7124,-14.7412,-14.6944,-14.8461,-14.8499,-14.8532,-14.8772,-14.8839,-14.8896,0,0,0,0,0,-14.4449,-14.4569,-14.557,-14.5117,-14.5242,-14.5463,-14.5738,-14.5766,-14.5941,-14.6194,-14.6231,-14.5982,-14.6457,-14.6551,-14.7082,-14.7362,-14.6872,-14.691,-14.8486,-14.8515,-14.8541,-14.8805,0,0,0,0,0,0,-14.4478,-14.4597,-14.5597,-14.5638,-14.4943,-14.5422,-14.55,-14.5744,-14.6127,-14.6169,-14.5842,-14.5821,-14.6468,-14.6538,-14.6611,-14.7341,-14.6812,-14.6852,-14.6877,-14.8508,-14.8531,-14.8552,0,0,0,0,0,0,-14.4533,-14.4632,-14.5618,-14.5395,-14.5411,-14.5383,-14.5453,-14.5915,-14.6132,-14.5754,-14.5748,-14.5828,-14.6357,-14.6532,-14.6588,-14.7307,-14.6767,-14.6805,-14.6832,-14.6848,-14.8527,-14.8545,0,0,0,0,0,0,-14.4576,-14.4661,-14.5384,-14.5397,-14.541,-14.5877,-14.5793,-14.6441,-14.5942,-14.5737,-14.5899,-14.588,-14.6354,-14.6411,-14.6573,-14.7268,-14.7297,-14.6769,-14.6794,-14.6813,-14.6825,0,0,0,0,0,0,0,-14.4611,-14.4023,-14.5354,-14.5399,-14.541,-14.6017,-14.6029,-14.604,-14.5938,-14.5921,-14.5904,-14.5888,-14.6551,-14.6593,-14.6635,-14.7237,0,0,-14.6765,-14.6783,0,0,0,0,0,0,0,0,-14.3989,-14.4015,-14.5355,-14.5364,-14.5372,-14.6019,-14.6028,-14.6037,-14.5935,-14.5921,-14.5907,-14.5894,-14.6562,-14.6596,-14.663,0,0,0,0,0,0,0,0,0,0,0,0,0,0,0,-14.5356,-14.5363,0,-14.602,-14.6028,-14.6035,-14.5933,-14.5922,-14.591,-14.59,-14.6572,-14.6599,-14.6627,0,0,0,0,0,0,0,0,0,0,0,0,0,0,0,0,0,0,0,0,0,0,0,0,0,0,0,0,0,0,0,0,0,0,0,0,0,0,0,0,0,0,0,0,0,0,0,0,0,0,0,0,0,0,0,0,0,0,0,0,0,0,0,0,0,0,0,0,0]}]]]